KC5TIL-3 Weather Reports


Display with metric or nautical units.
time (UTC)temp
F
wind
direction
speed
MPH
gust
MPH
rain 1hr
in
rain 24hr
in
rain mn
in
humidity
%
barometer
mb
20260509022747 74 157 7.0 8.0 0.00 0.00 0.00 60 1006.8
20260509022248 74 134 6.0 8.0 0.00 0.00 0.00 60 1006.8
20260509021750 74 200 4.0 9.0 0.00 0.00 0.00 59 1006.8
20260509021249 74 143 5.0 8.0 0.00 0.00 0.00 59 1006.8
20260509020750 74 121 7.0 7.0 0.00 0.00 0.00 59 1006.8
20260509020248 74 121 0.0 8.0 0.00 0.00 0.00 58 1006.8
20260509015747 74 117 5.0 7.0 0.00 0.00 0.00 58 1006.8
20260509015249 74 116 5.0 7.0 0.00 0.00 0.00 57 1006.8
20260509014750 74 119 6.0 6.0 0.00 0.00 0.00 56 1006.8
20260509014249 74 124 5.0 5.0 0.00 0.00 0.00 56 1006.8
20260509013750 74 126 4.0 7.0 0.00 0.00 0.00 55 1006.8
20260509013253 74 118 5.0 7.0 0.00 0.00 0.00 55 1006.8
20260509012751 74 129 5.0 6.0 0.00 0.00 0.00 54 1006.8
20260509012253 74 128 4.0 7.0 0.00 0.00 0.00 53 1005.8
20260509011254 74 174 0.0 6.0 0.00 0.00 0.00 52 1005.8
20260509010755 74 143 3.0 5.0 0.00 0.00 0.00 52 1005.8
20260509010257 74 146 0.0 5.0 0.00 0.00 0.00 52 1005.8
20260509005257 74 123 4.0 7.0 0.00 0.00 0.00 52 1005.8
20260509004751 74 123 0.0 7.0 0.00 0.00 0.00 52 1005.8
20260509003750 74 127 4.0 6.0 0.00 0.00 0.00 51 1005.8
20260509003252 74 181 4.0 7.0 0.00 0.00 0.00 51 1005.8
20260509002752 74 131 0.0 7.0 0.00 0.00 0.00 51 1005.8
20260509002253 74 218 4.0 6.0 0.00 0.00 0.00 50 1005.8
20260509000755 74 170 0.0 4.0 0.00 0.00 0.00 49 1005.8
20260508235756 74 150 4.0 7.0 0.00 0.00 0.00 50 1005.8
20260508234258 74 183 0.0 8.0 0.00 0.00 0.00 49 1006.8
20260508233800 74 134 5.0 7.0 0.00 0.00 0.00 49 1005.8
20260508232800 74 189 4.0 6.0 0.00 0.00 0.00 48 1005.8
20260508232257 74 125 3.0 7.0 0.00 0.00 0.00 47 1006.8
20260508231258 74 142 3.0 6.0 0.00 0.00 0.00 46 1006.8
20260508230759 74 208 4.0 7.0 0.00 0.00 0.00 47 1006.8
20260508225800 73 133 5.0 8.0 0.00 0.00 0.00 47 1006.8
20260508225302 74 152 3.0 10.0 0.00 0.00 0.00 46 1005.8
20260508224302 74 165 5.0 10.0 0.00 0.00 0.00 45 1005.8
20260508223804 74 132 7.0 11.0 0.00 0.00 0.00 45 1006.8
20260508223306 73 130 6.0 9.0 0.00 0.00 0.00 45 1006.8
20260508222805 74 206 6.0 10.0 0.00 0.00 0.00 45 1006.8
20260508221307 73 150 6.0 11.0 0.00 0.00 0.00 49 1006.8
20260508220804 72 214 6.0 11.0 0.00 0.00 0.00 49 1006.8
20260508215805 72 161 7.0 11.0 0.00 0.00 0.00 49 1006.8
20260508215306 72 146 7.0 12.0 0.00 0.00 0.00 48 1006.8
20260508214258 72 228 4.0 11.0 0.00 0.00 0.00 45 1006.8
20260508213746 72 205 5.0 10.0 0.00 0.00 0.00 46 1006.8
20260508212737 72 220 4.0 8.0 0.00 0.00 0.00 45 1006.8
20260508211737 71 131 5.0 7.0 0.00 0.00 0.00 44 1007.8
20260508211234 71 173 5.0 7.0 0.00 0.00 0.00 45 1007.8
20260508210737 70 211 5.0 7.0 0.00 0.00 0.00 45 1007.8
20260508205737 70 121 5.0 7.0 0.00 0.00 0.00 49 1007.8
20260508204239 70 111 4.0 9.0 0.00 0.00 0.00 48 1007.8
20260508203742 70 137 0.0 6.0 0.00 0.00 0.00 48 1007.8
20260508202741 69 245 3.0 8.0 0.00 0.00 0.00 52 1007.8
20260508202243 69 129 4.0 11.0 0.00 0.00 0.00 52 1007.8
20260508201745 68 125 4.0 13.0 0.00 0.00 0.00 53 1007.8
20260508201244 69 109 10.0 10.0 0.00 0.00 0.00 51 1007.8
20260508200745 69 131 6.0 11.0 0.00 0.00 0.00 47 1007.8
20260508200248 71 106 6.0 10.0 0.00 0.00 0.00 42 1007.8
20260508195746 71 199 7.0 10.0 0.00 0.00 0.00 41 1007.8
20260508195248 70 136 8.0 8.0 0.00 0.00 0.00 40 1009.8
20260508194750 71 152 5.0 10.0 0.00 0.00 0.00 38 1009.8
20260508194248 71 202 5.0 10.0 0.00 0.00 0.00 37 1009.8
20260508193746 71 207 7.0 8.0 0.00 0.00 0.00 37 1008.8
20260508193247 71 145 5.0 10.0 0.00 0.00 0.00 37 1008.8
20260508192746 71 145 5.0 8.0 0.00 0.00 0.00 36 1008.8
20260508192249 71 173 4.0 9.0 0.00 0.00 0.00 36 1008.8
20260508191750 71 222 5.0 11.0 0.00 0.00 0.00 35 1008.8
20260508190746 70 138 10.0 10.0 0.00 0.00 0.00 35 1008.8
20260508190242 71 125 6.0 11.0 0.00 0.00 0.00 34 1008.8
20260508185244 71 207 7.0 10.0 0.00 0.00 0.00 34 1009.8
20260508184745 71 131 6.0 10.0 0.00 0.00 0.00 34 1009.8
20260508183742 71 222 5.0 10.0 0.00 0.00 0.00 33 1009.8
20260508183243 71 230 5.0 10.0 0.00 0.00 0.00 32 1009.8
20260508182742 72 157 6.0 12.0 0.00 0.00 0.00 33 1009.8
20260508182238 72 200 6.0 10.0 0.00 0.00 0.00 33 1009.8
20260508181740 72 192 5.0 9.0 0.00 0.00 0.00 33 1009.8
20260508180242 73 120 6.0 7.0 0.00 0.00 0.00 32 1009.8
20260508175737 72 123 5.0 8.0 0.00 0.00 0.00 32 1009.8
20260508174739 71 137 5.0 6.0 0.00 0.00 0.00 33 1009.8
20260508174238 73 150 3.0 7.0 0.00 0.00 0.00 32 1009.8
20260508173740 72 138 3.0 8.0 0.00 0.00 0.00 32 1009.8
20260508173242 72 195 4.0 9.0 0.00 0.00 0.00 33 1009.8
20260508172741 71 128 3.0 9.0 0.00 0.00 0.00 34 1009.8
20260508171744 71 138 0.0 9.0 0.00 0.00 0.00 33 1010.8
20260508170745 70 227 4.0 8.0 0.00 0.00 0.00 34 1010.8
20260508165746 70 190 6.0 7.0 0.00 0.00 0.00 34 1010.8
20260508164749 70 208 3.0 7.0 0.00 0.00 0.00 34 1010.8
20260508164248 69 148 5.0 10.0 0.00 0.00 0.00 34 1010.8
20260508163749 69 112 7.0 5.0 0.00 0.00 0.00 35 1010.8
20260508163251 70 193 0.0 7.0 0.00 0.00 0.00 35 1010.8
20260508162247 68 145 7.0 9.0 0.00 0.00 0.00 36 1011.8
20260508161749 68 206 4.0 9.0 0.00 0.00 0.00 38 1011.8
20260508161248 68 126 3.0 7.0 0.00 0.00 0.00 38 1011.8
20260508160749 67 181 4.0 10.0 0.00 0.00 0.00 38 1011.8
20260508160251 67 119 7.0 8.0 0.00 0.00 0.00 39 1011.8
20260508155751 66 153 5.0 10.0 0.00 0.00 0.00 41 1011.8
20260508154748 66 142 4.0 12.0 0.00 0.00 0.00 42 1011.8
20260508154248 66 208 5.0 10.0 0.00 0.00 0.00 42 1011.8
20260508153749 66 114 5.0 10.0 0.00 0.00 0.00 43 1011.8
20260508153251 66 131 4.0 7.0 0.00 0.00 0.00 42 1011.8
20260508152251 66 123 5.0 10.0 0.00 0.00 0.00 41 1011.8
20260508151743 66 134 6.0 7.0 0.00 0.00 0.00 42 1011.8
20260508151233 66 147 5.0 7.0 0.00 0.00 0.00 42 1011.8
20260508150725 66 123 5.0 7.0 0.00 0.00 0.00 42 1011.8
20260508150226 66 137 5.0 9.0 0.00 0.00 0.00 41 1011.8
20260508145227 66 116 5.0 7.0 0.00 0.00 0.00 39 1011.8
20260508144730 66 120 4.0 7.0 0.00 0.00 0.00 40 1011.8
20260508143729 66 124 5.0 6.0 0.00 0.00 0.00 38 1011.8
20260508143232 66 129 4.0 7.0 0.00 0.00 0.00 38 1011.8
20260508142731 66 185 3.0 7.0 0.00 0.00 0.00 37 1011.8
20260508142232 66 119 3.0 7.0 0.00 0.00 0.00 38 1011.8
20260508141734 66 137 5.0 5.0 0.00 0.00 0.00 38 1011.8
20260508141232 66 220 3.0 7.0 0.00 0.00 0.00 38 1011.8
20260508140735 66 133 4.0 8.0 0.00 0.00 0.00 38 1012.8
20260508135734 65 129 4.0 7.0 0.00 0.00 0.00 39 1012.8
20260508134739 65 121 5.0 7.0 0.00 0.00 0.00 41 1011.8
20260508134237 65 137 5.0 7.0 0.00 0.00 0.00 41 1011.8
20260508133738 65 150 4.0 6.0 0.00 0.00 0.00 43 1011.8
20260508132739 64 199 4.0 5.0 0.00 0.00 0.00 45 1011.8
20260508132241 64 143 0.0 8.0 0.00 0.00 0.00 46 1011.8
20260508131231 63 116 6.0 8.0 0.00 0.00 0.00 47 1011.8
20260508130733 63 120 6.0 7.0 0.00 0.00 0.00 48 1012.8
20260508125731 63 140 3.0 6.0 0.00 0.00 0.00 50 1012.8
20260508124735 62 182 4.0 5.0 0.00 0.00 0.00 54 1012.8
20260508124233 62 193 4.0 5.0 0.00 0.00 0.00 54 1012.8
20260508123237 62 199 0.0 0.0 0.00 0.00 0.00 56 1012.8
20260508122735 62 199 0.0 3.0 0.00 0.00 0.00 58 1012.8
20260508121739 62 199 3.0 4.0 0.00 0.00 0.00 58 1012.8
20260508121238 62 199 0.0 0.0 0.00 0.00 0.00 60 1012.8
20260508120740 61 199 0.0 0.0 0.00 0.00 0.00 61 1011.8
20260508120242 61 199 0.0 0.0 0.00 0.00 0.00 61 1011.8
20260508115740 61 199 0.0 4.0 0.00 0.00 0.00 61 1011.8
20260508114744 61 199 0.0 0.0 0.00 0.00 0.00 61 1012.8
20260508114243 61 199 0.0 4.0 0.00 0.00 0.00 61 1012.8
20260508113744 61 199 0.0 4.0 0.00 0.00 0.00 61 1012.8
20260508113246 61 200 0.0 4.0 0.00 0.00 0.00 61 1012.8
20260508112740 61 207 0.0 0.0 0.00 0.00 0.00 61 1012.8
20260508112242 61 207 0.0 0.0 0.00 0.00 0.00 60 1012.8
20260508111744 61 207 0.0 4.0 0.00 0.00 0.00 59 1012.8
20260508111243 62 207 0.0 5.0 0.00 0.00 0.00 58 1012.8
20260508110744 62 210 4.0 4.0 0.00 0.00 0.00 55 1011.8
20260508110246 62 210 0.0 0.0 0.00 0.00 0.00 54 1011.8
20260508105745 62 209 0.0 4.0 0.00 0.00 0.00 54 1011.8
20260508105247 62 210 0.0 0.0 0.00 0.00 0.00 55 1012.8
20260508104748 62 210 0.0 4.0 0.00 0.00 0.00 55 1012.8
20260508104247 62 210 0.0 4.0 0.00 0.00 0.00 55 1012.8
20260508103749 62 178 0.0 4.0 0.00 0.00 0.00 55 1011.8
20260508103251 62 178 3.0 4.0 0.00 0.00 0.00 54 1011.8
20260508102749 62 178 0.0 4.0 0.00 0.00 0.00 53 1011.8
20260508102251 62 177 0.0 4.0 0.00 0.00 0.00 53 1011.8
20260508101753 62 177 0.0 3.0 0.00 0.00 0.00 51 1011.8
20260508101252 62 177 0.0 0.0 0.00 0.00 0.00 51 1011.8
20260508100754 62 177 0.0 5.0 0.00 0.00 0.00 51 1011.8
20260508095754 62 170 0.0 4.0 0.00 0.00 0.00 50 1011.8
20260508095256 62 169 0.0 0.0 0.00 0.00 0.00 50 1011.8
20260508094256 62 169 0.0 0.0 0.00 0.00 0.00 50 1011.8
20260508093301 63 169 0.0 0.0 0.00 0.00 0.00 50 1011.8
20260508092759 62 169 0.0 0.0 0.00 0.00 0.00 50 1011.8
20260508092301 63 169 0.0 0.0 0.00 0.00 0.00 50 1011.8
20260508091301 62 169 0.0 0.0 0.00 0.00 0.00 51 1011.8
20260508090305 62 169 0.0 0.0 0.00 0.00 0.00 52 1011.8
20260508085803 62 169 0.0 0.0 0.00 0.00 0.00 53 1011.8
20260508084807 62 169 0.0 5.0 0.00 0.00 0.00 53 1011.8
20260508084306 62 170 4.0 5.0 0.00 0.00 0.00 54 1011.8
20260508083808 62 170 3.0 4.0 0.00 0.00 0.00 53 1011.8
20260508083342 62 175 3.0 5.0 0.00 0.00 0.00 54 1011.8
20260508083309 62 175 3.0 5.0 0.00 0.00 0.00 54 1011.8
20260508082808 62 192 4.0 5.0 0.00 0.00 0.00 56 1011.8
20260508082310 62 192 3.0 0.0 0.00 0.00 0.00 58 1011.8
20260508081812 62 254 0.0 0.0 0.00 0.00 0.00 59 1011.8
20260508081312 62 254 0.0 4.0 0.00 0.00 0.00 59 1011.8
20260508080812 62 254 0.0 3.0 0.00 0.00 0.00 59 1012.8
20260508080314 63 255 3.0 0.0 0.00 0.00 0.00 59 1012.8
20260508075315 63 255 0.0 0.0 0.00 0.00 0.00 58 1012.8
20260508074825 63 255 0.0 0.0 0.00 0.00 0.00 58 1012.8
20260508074816 63 255 0.0 0.0 0.00 0.00 0.00 58 1012.8
20260508073817 63 255 0.0 0.0 0.00 0.00 0.00 57 1012.8
20260508073319 63 255 0.0 0.0 0.00 0.00 0.00 56 1012.8
20260508072319 63 255 0.0 4.0 0.00 0.00 0.00 55 1012.8
20260508070820 63 243 0.0 5.0 0.00 0.00 0.00 50 1012.8
20260508070320 63 240 0.0 4.0 0.00 0.00 0.00 48 1012.8
20260508065318 63 217 0.0 0.0 0.00 0.00 0.00 46 1012.8
20260508064319 64 213 0.0 4.0 0.00 0.04 0.00 47 1012.8
20260508063820 64 213 0.0 0.0 0.00 0.04 0.00 47 1012.8
20260508063317 64 213 0.0 4.0 0.00 0.04 0.00 46 1012.8
20260508062816 64 213 0.0 3.0 0.00 0.04 0.00 46 1012.8
20260508062229 64 213 0.0 3.0 0.00 0.04 0.00 46 1012.8
20260508061721 64 213 0.0 4.0 0.00 0.04 0.00 45 1012.8
20260508061220 64 213 0.0 3.0 0.00 0.04 0.00 44 1012.8
20260508060200 64 213 0.0 3.0 0.00 0.04 0.00 44 1012.8
20260508055654 64 213 0.0 6.0 0.00 0.04 0.00 44 1012.8
20260508055156 64 213 4.0 7.0 0.00 0.04 0.00 44 1013.8
20260508054657 64 212 4.0 7.0 0.00 0.04 0.00 44 1013.8
20260508054156 64 204 4.0 6.0 0.00 0.04 0.00 43 1013.8
20260508053200 64 228 4.0 6.0 0.00 0.04 0.00 42 1013.8
20260508052654 64 201 4.0 6.0 0.00 0.04 0.00 42 1013.8
20260508052151 64 218 5.0 6.0 0.00 0.04 0.00 41 1013.8
20260508051653 64 221 3.0 5.0 0.00 0.04 0.00 40 1013.8
20260508051032 64 223 3.0 6.0 0.00 0.04 0.00 38 1013.8
20260508050534 64 188 0.0 3.0 0.00 0.04 0.00 37 1013.8
20260508045534 64 187 0.0 0.0 0.00 0.04 0.00 36 1013.8
20260508045036 64 187 0.0 3.0 0.00 0.04 0.00 36 1013.8
20260508044037 64 187 0.0 3.0 0.00 0.04 0.00 35 1013.8
20260508043538 64 187 0.0 4.0 0.00 0.04 0.00 35 1013.8
20260508043040 64 187 0.0 0.0 0.00 0.04 0.00 35 1013.8
20260508042539 64 187 0.0 3.0 0.00 0.04 0.00 35 1013.8
20260508042041 65 187 0.0 4.0 0.00 0.04 0.00 34 1013.8
20260508041041 65 182 0.0 3.0 0.00 0.04 0.00 33 1013.8
20260508040543 65 132 0.0 5.0 0.00 0.04 0.00 33 1013.8
20260508035543 65 130 0.0 0.0 0.00 0.04 0.00 33 1013.8
20260508033548 65 130 0.0 0.0 0.00 0.04 0.00 32 1012.8
20260508033049 65 130 0.0 4.0 0.00 0.04 0.00 31 1012.8
20260508032548 66 130 0.0 4.0 0.00 0.04 0.00 31 1012.8
20260508031050 65 130 0.0 3.0 0.00 0.04 0.00 31 1012.8
20260508030552 65 130 0.0 4.0 0.00 0.04 0.00 32 1012.8
20260508030054 65 130 3.0 6.0 0.00 0.04 0.00 32 1012.8
20260508025552 65 143 4.0 4.0 0.00 0.04 0.00 32 1012.8
20260508024055 66 143 3.0 5.0 0.00 0.04 0.00 31 1012.8